Overview Statistics Trail Chart Weather Telemetry Raw packets
 

This is the latest recevied weather packets stored in our database for station/object HS5XHC-1. If no packets are shown the sender has not sent any weather packets the latest 10 day(s).

<< 38 39 40 41 42 43 44 >>
Time Temp. Humidity Pressure Rain* Wind** Luminosity Snow
1777288037 34.44° C 31% 961 hPa - - 0 W/m² -
1777287413 34.44° C 30% 961 hPa - - 0 W/m² -
1777286789 33.89° C 30% 961 hPa - - 0 W/m² -
1777286165 34.44° C 30% 961 hPa - - 0 W/m² -
1777285541 35° C 31% 961 hPa - - 0 W/m² -
1777284917 35° C 30% 961 hPa - - 0 W/m² -
1777284293 34.44° C 30% 961 hPa - - 0 W/m² -
1777283670 34.44° C 31% 962 hPa - - 0 W/m² -
1777283048 34.44° C 33% 962 hPa - - 0 W/m² -
1777282421 35° C 34% 962 hPa - - 0 W/m² -
1777281797 36.11° C 32% 961 hPa - - 0 W/m² -
1777281173 36.11° C 31% 961 hPa - - 0 W/m² -
1777280549 36.11° C 29% 961 hPa - - 0 W/m² -
1777279925 36.11° C 28% 962 hPa - - 0 W/m² -
1777279301 35.56° C 29% 962 hPa - - 0 W/m² -
1777278677 36.11° C 32% 962 hPa - - 0 W/m² -
1777278053 36.11° C 34% 962 hPa - - 0 W/m² -
1777277429 35.56° C 34% 963 hPa - - 0 W/m² -
1777276805 36.11° C 32% 963 hPa - - 0 W/m² -
1777276181 36.67° C 32% 963 hPa - - 0 W/m² -
1777275557 36.11° C 31% 963 hPa - - 0 W/m² -
1777274933 36.11° C 32% 963 hPa - - 0 W/m² -
1777274309 36.11° C 32% 963 hPa - - 0 W/m² -
1777273685 35.56° C 32% 963 hPa - - 0 W/m² -
1777273061 36.67° C 33% 963 hPa - - 0 W/m² -

* Rain since midnight (hover to see other rain measurements)
** Current wind speed in m/s (hover to see current wind gust speed)